Terminal Aerodrome Forecast
Issued by NWS

Current Version | Previous Version | Graphics & Text | Print | Product List | Glossary On
Versions: 1 2 3 4 5 6 7 8 9 10 11 12 13
000
FTUS41 KPBZ 172320
TAFMGW
TAF
KMGW 172320Z 1800/1824 25004KT P6SM BKN024
     FM180600 23008KT P6SM SCT025
     FM181400 22010G19KT P6SM SKC=

USA.gov is the U.S. government's official web portal to all federal, state and local government web resources and services.